CYQB

Quebec

Airport
ICAO code
CYQB
Summary
ICAO Region
NAM
ICAO Territory
Location

Quebec City, Quebec,

Coordinates
46° 47' 28" N , 71° 23' 36" W
KCC
Metar
Observation
CYQB 311900Z 26006KT 30SM FEW040 SCT180 OVC240 01/M06 A3011 RMK SC1AC2CS6 SC TR SLP204
Station
Quebec, Que
Date/Time
2023-03-31 19:00:00
Wind direction
260°
Wind speed
06 kts
Lowest cloud amount
few clouds
Temperature
1°C
Dew point
-6°C
Humidity
59%
Weather condition
n/a

Description

Québec City Jean Lesage International Airport, also known as Jean Lesage International Airport is located 6 nm west southwest of Quebec City, Quebec, Canada.

Climatology

Humid Continental climate (Köppen climate classification Dfb) - Variable weather patterns and a large seasonal temperature variance. Summers are often warm and humid with frequent thunderstorms and winters can be very cold with frequent snowfall and persistent snow cover.

Runways

Designator Length Width Surface Rops
12/30 1737 46 ASP Yes/Yes
6/24 2743 46 ASP Yes/Yes

Airport map

Aerial View

SKYbrary Partners:

Safety knowledge contributed by: